Regional Weather Roundup
Issued by NWS

Home | Current Version | Previous Version | Graphics & Text | Print | Product List | Glossary On
Versions: 1 2 3 4 5 6 7 8 9 10 11 12 13 14 15 16 17 18 19 20 21 22 23 24 25 26 27 28 29 30 31 32 33 34 35 36 37 38 39 40 41 42 43 44 45 46 47 48 49 50
000
ASUS45 KBOI 221010
RWRID
WEATHER ROUNDUP FOR IDAHO
NATIONAL WEATHER SERVICE BOISE ID
300 AM MST MON DEC 22 2014

NOTE: "FAIR" INDICATES FEW OR NO CLOUDS BELOW 12000 FEET
WITH NO SIGNIFICANT WEATHER AND/OR OBSTRUCTIONS TO VISIBILITY

IDZ012-014-221100-
SOUTHWEST IDAHO


CITY           SKY/WX    TMP DP  RH WIND       PRES   REMARKS
BOISE          LGT RAIN  40  39  97 CALM      30.08S FOG
CALDWELL       CLOUDY    41  36  81 CALM      30.11R
MOUNTAIN HOME  LGT RAIN  39  39 100 SW5       30.07S
$$

IDZ016-017-221100-
SOUTHCENTRAL IDAHO


CITY           SKY/WX    TMP DP  RH WIND       PRES   REMARKS
BURLEY         CLOUDY    36  32  85 W16G22    30.01S WCI  26
JEROME         CLOUDY    36  34  92 SW10      30.03F WCI  28
TWIN FALLS     CLOUDY    40  34  79 SW12      30.04F WCI  33
$$

IDZ019>023-221100-
SOUTHEAST IDAHO


CITY           SKY/WX    TMP DP  RH WIND       PRES   REMARKS
IDAHO FALLS    CLOUDY    34  31  88 SW18      29.90F WCI  23
POCATELLO      CLOUDY    35  35 100 SW22      29.97S WCI  23
REXBURG        CLOUDY    32  31  96 S12       29.91R WCI  23
$$

IDZ006-010-011-018-031-032-221100-
CENTRAL IDAHO MOUNTAINS


CITY           SKY/WX    TMP DP  RH WIND       PRES   REMARKS
MCCALL         LGT SNOW  31  31 100 S3        30.00S FOG
HAILEY         PTCLDY    30  28  93 CALM      29.96F
STANLEY          N/A     29  24  82 NE3       29.96S
SALMON         CLOUDY    34  28  80 CALM      29.93R
CHALLIS        CLOUDY    35  27  72 S7        29.93S WCI  29
$$

IDZ002-004-006-007-026-221100-
NORTHERN IDAHO


CITY           SKY/WX    TMP DP  RH WIND       PRES   REMARKS
LEWISTON       CLOUDY    49  35  58 SW10      30.03F
LOWELL           N/A     41  40  96 N3        30.06R
COEUR D`ALENE  PTCLDY    36  30  80 S6        29.98R WCI  31
MULLAN PASS    CLOUDY    26  25  96 NW5       29.88R WCI  20
$$


USA.gov is the U.S. government's official web portal to all federal, state and local government web resources and services.